CW7079 Weather Reports


time (UTC)temp
F
wind
direction
speed
knots
gust
knots
rain 1hr
in
rain 24hr
in
rain mn
in
humidity
%
barometer
mb
20260506022253 45 0 2.6 7.0 0.00 0.00 0.00 83 1014.3
20260506015243 47 17 5.2 13.0 0.00 0.00 0.00 81 1014.5
20260506012248 47 9 5.2 11.3 0.00 0.00 0.00 80 1014.4
20260506002223 49 0 5.2 9.6 0.00 0.00 0.00 78 1014.7
20260505235235 49 13 3.5 8.7 0.00 0.00 0.00 78 1014.8
20260505232108 50 14 5.2 12.2 0.00 0.00 0.00 79 1014.8
20260505225135 50 17 7.8 13.0 0.00 0.00 0.00 78 1014.8
20260505222218 51 18 6.1 12.2 0.00 0.00 0.00 78 1015.0
20260505215252 51 25 6.1 11.3 0.00 0.00 0.00 79 1014.8
20260505204846 52 15 6.1 10.4 0.00 0.00 0.00 78 1014.7
20260505201916 52 30 7.0 13.0 0.00 0.00 0.00 76 1014.7
20260505194833 53 33 7.0 12.2 0.00 0.00 0.00 75 1014.2
20260505191943 53 24 10.4 13.9 0.00 0.00 0.00 74 1013.8
20260505184906 55 29 8.7 14.8 0.00 0.00 0.00 72 1013.7
20260505171409 58 16 10.4 15.6 0.00 0.00 0.00 66 1013.2
20260505151101 63 11 2.6 7.8 0.00 0.00 0.00 59 1012.7
20260505123900 61 19 1.7 5.2 0.00 0.00 0.00 61 1013.2
20260505120941 61 19 0.9 5.2 0.00 0.00 0.00 62 1013.3
20260505100642 60 38 2.6 7.0 0.00 0.00 0.00 65 1013.9
20260505093709 59 16 2.6 7.8 0.00 0.00 0.00 66 1014.2
20260505083544 55 20 1.7 5.2 0.00 0.00 0.00 80 1014.6
20260505080517 54 20 0.9 5.2 0.00 0.00 0.00 82 1014.7
20260505073411 53 20 0.0 2.6 0.00 0.00 0.00 86 1014.7
20260505070516 50 19 0.0 1.7 0.00 0.00 0.00 88 1014.8
20260505063403 49 20 0.0 1.7 0.00 0.00 0.00 88 1015.1
20260505060510 49 20 0.9 2.6 0.00 0.00 0.00 89 1015.1
20260505053341 48 19 0.0 1.7 0.00 0.00 0.00 89 1015.0
20260505050314 49 20 0.0 0.9 0.00 0.00 0.00 89 1014.9
20260505033144 50 20 0.0 0.0 0.00 0.00 0.00 88 1015.1
20260505030212 50 20 0.0 0.0 0.00 0.00 0.00 88 1015.2